Regional Weather Roundup
Issued by NWS State College, PA

Home | Current Version | Previous Version | Text Only | Print | Product List | Glossary On
Versions: 1 2 3 4 5 6 7 8 9 10 11 12 13 14 15 16 17 18 19 20 21 22 23 24 25 26 27 28 29 30 31 32 33 34 35 36 37 38 39 40 41 42 43 44 45 46 47 48 49 50
000
ASUS41 KCTP 201810
RWRCTP

REGIONAL WEATHER ROUNDUP
NATIONAL WEATHER SERVICE STATE COLLEGE PA
200 PM EDT SUN MAY 20 2018

Note: "fair" indicates few or no clouds below 12,000 feet with no
significant weather and/or obstructions to visibility.

* = STATION THAT DOES NOT REPORT PRECIPITATION /E.G. RAIN...SNOW...ETC/
    THUNDER OR FOG.

PAZ002>004-007>009-013>016-020>023-029>032-201900-
WESTERN PENNSYLVANIA

CITY           SKY/WX    TMP DP  RH WIND       PRES   REMARKS
ERIE           CLOUDY    58  51  78 VRB5      30.15R
MEADVILLE      CLOUDY    56  54  93 NW7       30.16R
FRANKLIN*      CLOUDY    66  57  72 N9        30.14R
NEW CASTLE     NOT AVBL
BEAVER COUNTY  CLOUDY    70  59  68 NW6       30.13R
BUTLER*        CLOUDY    70  60  70 W7        30.12R
PITTSBURGH INT PTSUNNY   72  62  71 N10       30.11R
PITTSBURGH     PTSUNNY   72  63  73 NW6       30.10R
INDIANA*       CLOUDY    72  64  78 NW8       30.14R
LATROBE        PTSUNNY   72  64  78 NW8       30.10R
WASHINGTON CO* PTSUNNY   75  64  68 NW9       30.13R
$$

PAZ004>006-010>012-017>019-024>028-033>037-041-042-045-046-049>053-201900-
CENTRAL PENNSYLVANIA

CITY           SKY/WX    TMP DP  RH WIND       PRES   REMARKS
BRADFORD       CLOUDY    63  54  72 NW12      30.11R
DUBOIS         CLOUDY    67  59  75 W8        30.09R
CLEARFIELD     CLOUDY    71  58  63 NW15      30.08R
JOHNSTOWN      FAIR      70  61  73 W13G21    30.11R
ALTOONA        PTSUNNY   76  63  64 NW12      30.08R
STATE COLLEGE  CLOUDY    72  61  68 W8        30.05R
WILLIAMSPORT   CLOUDY    75  61  61 W10       29.99S
SELINSGROVE    CLOUDY    74  66  76 CALM      30.01S
FT INDIANTOWN  FAIR      76  66  69 W3        30.01R
CAPITAL CITY   CLOUDY    78  66  66 NW5       30.01R
HARRISBURG     CLOUDY    76  67  73 NW6       30.00S
YORK           PTSUNNY   82  66  58 W10       30.01R
$$

PAZ038>040-043-044-047-048-054-055-060>062-067>071-201900-
EASTERN PENNSYLVANIA

CITY           SKY/WX    TMP DP  RH WIND       PRES   REMARKS
SCRANTON       CLOUDY    69  64  84 W8        30.00R
MOUNT POCONO   PTSUNNY   72  61  68 W17G25    30.02R
ALLENTOWN      CLOUDY    76  66  71 W12       29.99R
QUAKERTOWN*    MOCLDY    77  66  69 W9        30.00S
READING        PTSUNNY   76  67  73 NW13      29.99S
LANCASTER      FAIR      81  67  62 NW16G23   30.00F
COATESVILLE    FAIR      75  66  73 W10       30.03S
POTTSTOWN      PTSUNNY   76  64  66 W9G18     30.00S
BLUE BELL      CLOUDY    70  68  94 W6        30.00R
DOYLESTOWN     FAIR      79  67  66 W10G17    29.97S
WILLOW GROVE   NOT AVBL
NORTH PHILA    CLOUDY    82  65  56 W16G23    29.98S
PHILADELPHIA   PTSUNNY   81  65  58 NW17      29.98R
$$




USA.gov is the U.S. government's official web portal to all federal, state and local government web resources and services.